Torna al catalogo

SL-12 DEB

LostHEO
NORAD 34202·DEBRIS·🇷🇺 Russia

Lanciato Nov 12, 1997 da Baikonur Cosmodrome

Loading…

Prossimi Passaggi (prossime 24 ore)

TLE

ObsoletoSource: Space-Track

Epoca: Nov 6, 2016, 05:45 UTC

1 34202U 97070M   16311.23986363 -.00000013  00000-0  00000+0 0  9990
2 34202  48.1614 218.5365 3277972 227.8688 333.0089  7.28749514237011

Traccia SL-12 DEB in tempo reale con AllMySat

Download on the App Store